TimeCDT,TemperatureF,Dew PointF,Humidity,Sea Level PressureIn,VisibilityMPH,Wind Direction,Wind SpeedMPH,Gust SpeedMPH,PrecipitationIn,Events,Conditions,WindDirDegrees,DateUTC
12:53 AM,73.0,68.0,84,29.93,10.0,Calm,Calm,-,N/A,,Clear,0,2013-09-13 05:53:00
1:53 AM,73.0,68.0,84,29.93,10.0,SE,5.8,-,N/A,,Partly Cloudy,140,2013-09-13 06:53:00
2:53 AM,73.0,68.0,84,29.92,10.0,Calm,Calm,-,N/A,,Mostly Cloudy,0,2013-09-13 07:53:00
3:53 AM,72.0,66.9,84,29.91,10.0,Calm,Calm,-,N/A,,Scattered Clouds,0,2013-09-13 08:53:00
4:53 AM,72.0,66.9,84,29.91,10.0,Calm,Calm,-,N/A,,Mostly Cloudy,0,2013-09-13 09:53:00
5:53 AM,73.0,68.0,84,29.91,10.0,Calm,Calm,-,N/A,,Overcast,0,2013-09-13 10:53:00
6:53 AM,72.0,69.1,91,29.92,10.0,Calm,Calm,-,N/A,,Mostly Cloudy,0,2013-09-13 11:53:00
7:53 AM,75.0,70.0,84,29.93,10.0,Calm,Calm,-,N/A,,Overcast,0,2013-09-13 12:53:00
8:53 AM,77.0,71.1,82,29.93,10.0,Calm,Calm,-,N/A,,Scattered Clouds,0,2013-09-13 13:53:00
9:53 AM,82.9,71.1,67,29.94,10.0,WNW,5.8,-,N/A,,Overcast,290,2013-09-13 14:53:00
10:53 AM,88.0,71.1,57,29.94,10.0,Variable,4.6,-,N/A,,Clear,0,2013-09-13 15:53:00
11:53 AM,91.9,68.0,45,29.92,10.0,NW,5.8,-,N/A,,Clear,320,2013-09-13 16:53:00
12:53 PM,93.9,64.0,37,29.89,10.0,Variable,3.5,-,N/A,,Clear,0,2013-09-13 17:53:00
1:53 PM,95.0,64.9,37,29.86,10.0,Calm,Calm,-,N/A,,Clear,0,2013-09-13 18:53:00
2:53 PM,96.1,64.9,36,29.83,10.0,Calm,Calm,-,N/A,,Partly Cloudy,0,2013-09-13 19:53:00
3:53 PM,93.9,66.0,40,29.81,10.0,NNE,3.5,-,0.00,Rain,Light Rain,20,2013-09-13 20:53:00
4:53 PM,91.0,70.0,50,29.82,10.0,NNE,13.8,23.0,N/A,,Mostly Cloudy,20,2013-09-13 21:53:00
5:53 PM,84.9,70.0,61,29.82,10.0,ENE,6.9,16.1,N/A,,Partly Cloudy,60,2013-09-13 22:53:00
6:53 PM,82.9,70.0,65,29.83,10.0,ENE,8.1,-,N/A,,Clear,60,2013-09-13 23:53:00
7:53 PM,81.0,70.0,69,29.85,10.0,NNE,3.5,-,N/A,,Clear,30,2013-09-14 00:53:00
8:53 PM,79.0,70.0,74,29.87,10.0,NE,3.5,-,N/A,,Mostly Cloudy,50,2013-09-14 01:53:00
9:53 PM,77.0,71.1,82,29.89,10.0,Calm,Calm,-,N/A,,Mostly Cloudy,0,2013-09-14 02:53:00
10:53 PM,77.0,71.1,82,29.90,10.0,NNE,3.5,-,N/A,,Partly Cloudy,30,2013-09-14 03:53:00
11:53 PM,77.0,71.1,82,29.90,10.0,Calm,Calm,-,N/A,,Overcast,0,2013-09-14 04:53:00